Regional Weather Roundup
Issued by NWS

Home | Current Version | Previous Version | Graphics & Text | Print | Product List | Glossary On
Versions: 1 2 3 4 5 6 7 8 9 10 11 12 13 14 15 16 17 18 19 20 21 22 23 24 25 26 27 28 29 30 31 32 33 34 35 36 37 38 39 40 41 42 43 44 45 46 47 48 49 50
000
ASUS45 KTFX 061010
RWRMT
MONTANA REGIONAL WEATHER ROUNDUP
NATIONAL WEATHER SERVICE GREAT FALLS MT
400 AM MDT MON JUL 06 2015

NOTE: "FAIR" INDICATES FEW OR NO CLOUDS BELOW 12000 FEET WITH NO
SIGNIFICANT WEATHER AND/OR OBSTRUCTIONS TO VISIBILITY.

MTZ001>007-043-061100-
WEST OF THE DIVIDE

CITY           SKY/WX    TMP DP  RH WIND       PRES   REMARKS
KALISPELL      SUNNY     44  40  85 CALM      30.20R
MISSOULA       CLEAR     57  43  59 SE14      30.18F
BUTTE          CLOUDY    51  43  74 CALM      30.28S
MULLAN PASS    CLEAR     48  42  80 SE10G18   30.23R
DEER LODGE       N/A     52  45  76 NW6       30.29F
EUREKA           N/A     48  39  71 CALM      30.20S
HAMILTON         N/A     55  46  71 S3        30.17F
LIBBY            N/A     46  41  81 CALM      30.19S
PLAINS           N/A     51  41  69 CALM      30.17R
RONAN            N/A     47  43  86 CALM      30.21S
$$

MTZ008-052>055-061100-
SOUTHWEST MONTANA

CITY           SKY/WX    TMP DP  RH WIND       PRES   REMARKS
BOZEMAN        CLOUDY    53  50  89 CALM      30.26S
DILLON         CLOUDY    52  47  83 NE8       30.26R
W YELLOWSTONE  MOCLDY    46  46 100 CALM      30.31R
THREE FORKS      N/A     55  55 100 CALM      30.23S
TWIN BRIDGES     N/A     54  44  68 N12       30.21R
$$

MTZ009-010-012-014-046-048-049-054-061100-
EAST SLOPES AND CENTRAL MONTANA

CITY           SKY/WX    TMP DP  RH WIND       PRES   REMARKS
CUT BANK       CLEAR     42  41  96 N3        30.25S
GREAT FALLS    MOCLDY    47  46  97 SW3       30.26S
MALMSTROM AFB  CLEAR     47  47 100 SW6       30.27S
HELENA         MOCLDY    53  47  79 W5        30.25F
CONRAD           N/A     41  41 100 CALM      30.25S
$$

MTZ011-013-016-021-045-047-050-051-061100-
NORTH CENTRAL MONTANA

CITY           SKY/WX    TMP DP  RH WIND       PRES   REMARKS
HAVRE          CLEAR     51  49  92 MISG      30.23R
LEWISTOWN      CLOUDY    52  48  86 W3        30.27S
CHINOOK          N/A     52  48  87 W5        30.22S
FORT BENTON      N/A     50  48  93 CALM      30.26F
$$

MTZ017>020-022>027-061-062-061100-
NORTHEAST MONTANA

CITY           SKY/WX    TMP DP  RH WIND       PRES   REMARKS
GLASGOW        CLOUDY    57  53  86 NW5       30.18S
JORDAN           N/A     56  53  90 W5        30.21R
SIDNEY         CLOUDY    61  52  72 W9        30.15R
WOLF POINT     CLOUDY    57  54  89 W6        30.17S
MALTA            N/A     53  48  83 CALM      30.16S
PLENTYWOOD       N/A     52  48  87 W5        30.15R
POPLAR           N/A     57  55  94 SW5       30.18R
SCOBEY           N/A     53  46  77 NW1       30.14R
$$

MTZ028>42-056>058-061100-
SOUTHCENTRAL AND SOUTHEAST MONTANA

CITY           SKY/WX    TMP DP  RH WIND       PRES   REMARKS
BAKER          CLOUDY    58  55  90 NW9       30.18R
BILLINGS       CLOUDY    55  47  74 NE3       30.26R
LIVINGSTON     CLOUDY    54  49  83 E9        30.26S
MILES CITY     CLOUDY    57  54  89 NW9       30.20R
EKALAKA          N/A     55  51  86 W2        30.16S
FORSYTH          N/A     55  55 100 W5        30.22R
LAUREL           N/A     55  46  71 N2        30.23R
ROUNDUP          N/A     55  47  74 CALM      30.15S
$$

REGIONAL REPORTS...DAKOTAS

CITY           SKY/WX    TMP DP  RH WIND       PRES   REMARKS
WILLISTON      CLOUDY    59  50  72 N6        30.14R
MINOT          MOCLDY    53  50  89 NW6       30.08R FOG
DICKINSON      MOCLDY    55  51  86 NW7       30.11R
BEACH          CLOUDY    55  55 100 NW7       30.17R
CROSBY         PTSUNNY   54  54 100 NW5       30.14R FOG
BISMARCK       CLOUDY    61  54  77 N7        30.07R
GRAND FORKS    CLOUDY    58  52  80 N8        29.99R
FARGO          CLOUDY    64  59  83 N14G24    29.93R HAZE
BUFFALO SD       N/A     58  52  80 NW10      30.10R
RAPID CITY     CLOUDY    60  56  86 NW13      30.14R FOG
$$

REGIONAL REPORTS...WYOMING/IDAHO/WASHINGTON

CITY           SKY/WX    TMP DP  RH WIND       PRES   REMARKS
GILLETTE       CLOUDY    54  52  93 N10       30.21S FOG
SHERIDAN       CLOUDY    53  51  93 NE6       30.23S FOG
BUFFALO WY     LGT RAIN  53  53 100 N9        30.26R FOG
CODY           CLOUDY    54  48  82 N7        30.26R
YELLOWSTONE LA   N/A     46  44  93 CALM      30.37R
IDAHO FALLS    CLOUDY    65  55  70 MISG      30.14R
SALMON         CLEAR     61  50  67 N9        30.13R
BOISE          MOCLDY    70  54  56 SE6       30.00R
SPOKANE        PTCLDY    68  40  35 NE8       30.04R
$$

REGIONAL REPORTS...ALBERTA

CITY           SKY/WX    TMP DP  RH WIND       PRES   REMARKS
EDMONTON       CLEAR     52  37  58 SW5       30.15F
CALGARY        PTCLDY    48  43  81 S6        30.21F
LETHBRIDGE     CLEAR     45  43  93 SW6       30.23S
MEDICINE HAT   CLEAR     46  45  93 VRB2      30.22R
WATERTON GATE    N/A     39  39 100 SW6         N/A
CARDSTON         N/A     43  43 100 S3          N/A
MILK RIVER       N/A     45  43  93 NW7         N/A
ONEFOUR          N/A     48  46  93 NW9         N/A
$$

REGIONAL REPORTS...SASKATCHEWAN

CITY           SKY/WX    TMP DP  RH WIND       PRES   REMARKS
SWIFT CURRENT  MOCLDY    46  45  93 S5        30.19R FOG
REGINA         PTCLDY    48  46  93 N5        30.17R
SASKATOON      PTCLDY    43  41  93 W5        30.19R
CYPRESS HILLS    N/A     43  41  93 NW1         N/A
VAL MARIE        N/A     52  50  93 SW1         N/A
ROCKGLEN         N/A     50  48  93 NW7         N/A
ASSINIBOIA       N/A     46  43  87 SW8         N/A
$$



USA.gov is the U.S. government's official web portal to all federal, state and local government web resources and services.